sat.trackr.live / text

‹ back to catalog

STARLINK-11139 [DTC]

NORAD 60402 · 2024-141E

PAYLOAD ACTIVE UNKNOWN

§ Identity

Operator
Country
US
Launch date
2024-08-10
Launch site
AFETR
Launch vehicle
Mass (kg)
RCS (m²)

Purposes: comms

External: N2YO · Heavens-Above · Gunter

§ Orbital elements

Epoch: 2026-05-25T04:43:28.668576Z

Period
91.74 min
Inclination
53.1588°
Eccentricity
0.0000932
Mean motion
15.69709500 rev/d
Perigee alt
359.1 km
Apogee alt
360.4 km
Semi-major
6,737.9 km
B*
2.6866e-5
RAAN
68.7872°
Arg perigee
80.6694°
Mean anomaly
279.4429°
Rev number
10,376

§ Raw data

STARLINK-11139 [DTC]1 60402U 24141E   26145.19685959  .00002667  00000+0  26866-4 0  99962 60402  53.1588  68.7872 0000932  80.6694 279.4429 15.69709500103765

JSON: /api/v1/satellites/60402 · /tle

For live sub-satellite position, see the globe view (requires WebGL).

§ Visibility from observer

Set your observer location to see the next 7 days of passes ≥ 10°. The values pass through the URL so the page stays shareable.

No JS? Fill the form by hand. The geolocation button needs JavaScript.